Regional Weather Roundup
Issued by NWS Cleveland, OH

Home | Current Version | Previous Version | Text Only | Print | Product List | Glossary Off
Versions: 1 2 3 4 5 6 7 8 9 10 11 12 13 14 15 16 17 18 19 20 21 22 23 24 25 26 27 28 29 30 31 32 33 34 35 36 37 38 39 40 41 42 43 44 45 46 47 48 49 50

000
ASUS41 KCLE 202002
RWRCLE
OHIO REGIONAL WEATHER ROUNDUP
NATIONAL WEATHER SERVICE CLEVELAND, OH
400 PM EDT FRI OCT 20 2017

NOTE: "FAIR" INDICATES FEW OR NO CLOUDS BELOW 12,000 FEET WITH NO
SIGNIFICANT WEATHER AND/OR OBSTRUCTIONS TO VISIBILITY.

OHZ001>008-015>018-024>027-034-035-043-044-202100-
   NORTHWEST OHIO

CITY           SKY/WX    TMP DP  RH WIND       PRES   REMARKS
DEFIANCE       SUNNY     76  48  37 S10       30.17F
FINDLAY        SUNNY     77  46  33 S10       30.18F
TOLEDO EXPRESS SUNNY     76  50  40 S9        30.18F
TOLEDO EXEC    SUNNY     75  46  35 SW8       30.19F
LIMA           SUNNY     76  49  38 S9        30.19F
$$

OHZ009>014-019>023-028>033-038-089-202100-
   NORTHEAST OHIO

CITY           SKY/WX    TMP DP  RH WIND       PRES   REMARKS
CLE-HOPKINS    MOSUNNY   74  41  30 SW7       30.24F
CLE-LAKEFRONT  SUNNY     72  37  28 N5        30.21F
CUY CO. ARPT   SUNNY     75  37  25 SW8       30.24F
LORAIN-ELYRIA  SUNNY     73  36  25 S5        30.22F
ASHTABULA      SUNNY     71  34  25 S5        30.24F
AKRON-CANTON   MOSUNNY   73  38  27 VRB5      30.25F
WOOSTER        SUNNY     72  39  30 S5        30.24F
MANSFIELD      SUNNY     74  38  27 SE6       30.24F
YOUNGSTOWN     MOSUNNY   71  34  25 VRB5      30.25S
$$

OHZ042-051>053-060>062-070>072-077>081-202100-
  SOUTHWEST OHIO

CITY           SKY/WX    TMP DP  RH WIND       PRES   REMARKS
CINC-COVINGTON PTSUNNY   75  55  49 S7        30.21F
CINC-LUNKEN    SUNNY     75  55  49 VRB6      30.21F
HAMILTON       SUNNY     76  54  46 VRB6      30.22F
DAYTON         MOSUNNY   74  54  49 S8        30.21F
WRIGHT-PAT AFB MOSUNNY   76  49  38 SE5       30.20F
DAYTON GENERAL SUNNY     74  52  46 S7        30.20F
WILMINGTON     SUNNY     75  53  46 S7        30.22F
$$

OHZ036-037-039>041-045>050-054>059-063>069-073>076-082>088-202100-
  CENTRAL AND SOUTHEAST OHIO

CITY           SKY/WX    TMP DP  RH WIND       PRES   REMARKS
COLUMBUS       MOSUNNY   74  38  27 VRB3      30.22F
OSU AIRPORT    SUNNY     72  43  35 SE6       30.22F
BOLTON FIELD   SUNNY     73  46  38 SE5       30.23F
RICKENBACK AFB SUNNY     73  39  28 SE3       30.22F
NEWARK         SUNNY     75  34  22 CALM      30.23F
MARION         SUNNY     74  38  27 S5        30.22F
LANCASTER      SUNNY     73  44  35 SE5       30.24F
ZANESVILLE     SUNNY     73  40  30 E5        30.24F
NEW PHILLY     NOT AVBL
$$




USA.gov is the U.S. government's official web portal to all federal, state and local government web resources and services.